Back to catalog

HULIANWANG DIGUI-156

AliveCommunicationsLEO
NORAD 68130·PAYLOAD·🇨🇳 China

Launched Mar 12, 2026 from Wenchang Space Launch Site

Loading…

Next Passes (next 24 hours)

TLE

FreshSource: Space-Track

Epoch: Sep 13, 2026, 22:22 UTC

1 68130U 26047B   26256.93258705 -.00000087  00000-0  80074-4 0  9996
2 68130  50.0024  98.0201 0001254  68.7818 291.3188 13.29319698 24864

Track HULIANWANG DIGUI-156 in real time with AllMySat

Download on the App Store